Flag for U.S.A. Weather past 2 weeks in Sitka, Alaska, U.S.A.

Now
59 °F

Overcast.


Feels Like: 58 °F
Forecast: 55 / 60 °F
Wind: 8 mph from South

Location: Sitka Airport

Current Time: Jul 7, 2015 at 9:22:37 PM

Latest Report: Jul 7, 2015 at 8:53 PM


Visibility: 10 mi

Pressure: 30.07 "Hg

Humidity: 87%

Dew point: 55 °F

Location of SitkaLocation

Historic Weather in Sitka — Graph

°F

Sitka temperature yesterday

Maximum temperature yesterday: 68 °F (at 12:53 PM)
Minimum temperature yesterday: 54 °F (at 4:53 AM)
Average temperature yesterday: 61 °F

Past Weeks' High & Low Weather Summary

 TemperatureHumidityPressure
High68 °F (Jul 6, 12:53 PM)100% (Jun 25, 7:53 PM)30.32 "Hg (Jun 25, 7:53 PM)
Low49 °F (Jul 1, 2:53 AM)51% (Jun 24, 8:53 AM)29.84 "Hg (Jun 25, 5:53 PM)
Average58 °F80%30.11 "Hg
* Reported Jun 22 7:53 PM — Jul 7 7:53 PM, Sitka, Weather by CustomWeather, © 2015

Note: Actual official high and low records may vary slightly from our data, if they occured in-between our weather recording intervals... More about our weather records

Advertising

Sitka weather history for previous 24 hours

 ConditionsComfort  
Time TempWeatherWind HumidityBarometerVisibility
7:53 PM
Tue, Jul 7
61 °FMostly cloudy.6 mph83%30.08 "Hg10 mi
6:53 PM62 °FPartly sunny.10 mph83%30.08 "Hg10 mi
5:53 PM63 °FPartly sunny.3 mph78%30.09 "Hg10 mi
4:53 PM63 °FBroken clouds.10 mph81%30.12 "Hg10 mi
3:53 PM66 °FBroken clouds.7 mph73%30.13 "Hg10 mi
2:53 PM66 °FBroken clouds.10 mph73%30.13 "Hg10 mi
1:53 PM66 °FPartly sunny.8 mph70%30.13 "Hg10 mi
12:53 PM65 °FPartly sunny.14 mph73%30.14 "Hg10 mi
11:53 AM64 °FPartly sunny.7 mph73%30.14 "Hg10 mi
10:53 AM63 °FBroken clouds.6 mph75%30.14 "Hg10 mi
9:53 AM62 °FBroken clouds.14 mph78%30.15 "Hg10 mi
8:53 AM60 °FBroken clouds.5 mph80%30.14 "Hg10 mi
7:53 AM59 °FBroken clouds.6 mph81%30.14 "Hg10 mi
6:53 AM58 °FBroken clouds.3 mph87%30.15 "Hg10 mi
5:53 AM57 °FPartly sunny.8 mph87%30.15 "Hg10 mi
4:53 AM57 °FPassing clouds.6 mph83%30.15 "Hg10 mi
3:53 AM57 °FPassing clouds.5 mph87%30.15 "Hg10 mi
2:53 AM57 °FPassing clouds.10 mph87%30.16 "Hg10 mi
1:53 AM57 °FClear.8 mph87%30.16 "Hg10 mi
12:53 AM57 °FClear.6 mph87%30.15 "Hg10 mi
11:53 PM
Mon, Jul 6
58 °FClear.7 mph87%30.15 "Hg10 mi
10:53 PM58 °FPassing clouds.9 mph87%30.14 "Hg10 mi
9:53 PM60 °FPassing clouds.13 mph80%30.14 "Hg10 mi
Weather by CustomWeather, © 2015

See weather overviewHow to use our weather pages